Weather History for Bellingham, WA

Change the Weather History Date:

Thursday, April 19, 2012

  Actual Average Record
Temperature  
Mean Temperature 48 °F 49 °F  
Max Temperature 57 °F 57 °F 73 °F (2010)
Min Temperature 39 °F 40 °F 28 °F (1951)
Degree Days  
Heating Degree Days 17 16  
Month to date heating degree days 329  
Cooling Degree Days 0 0  
Month to date cooling degree days 0  
Year to date cooling degree days 0  
Moisture  
Dew Point 43 °F    
Average Humidity 90    
Maximum Humidity 100    
Minimum Humidity 49    
Precipitation  
Precipitation 0.95 in 0.09 in 1.02 in (2012)
Month to date precipitation 1.81  
Year to date precipitation 12.72  
Sea Level Pressure  
Sea Level Pressure 30.03 in    
Wind  
Wind Speed 2 mph (ENE)    
Max Wind Speed 9 mph    
Max Gust Speed 17 mph    
Visibility 5 miles    
Events Fog , Rain    
T = Trace of Precipitation, MM = Missing Value Source: NWS Daily Summary

Daily Weather History Graph

Daily Weather History Graph

Search for Another Location

Airport:

Trip Planner

Search our weather history database for the weather conditions in past years. The results will help you decide how hot, cold, wet, or windy it might be!

Date:

Astronomy

Apr. 19, 2012 Rise Set
Actual Time 6:10 AM PDT 8:08 PM PDT
Civil Twilight 5:36 AM PDT 8:42 PM PDT
Nautical Twilight 4:55 AM PDT 9:24 PM PDT
Astronomical Twilight 4:08 AM PDT 10:11 PM PDT
Moon 5:12 AM PDT (4/19) 6:59 PM PDT (4/19)
Length of Visible Light 15h 05m
Length of Day
13h 58m
Waning Crescent, 2% of the Moon is Illuminated
Apr 19
Waning Crescent
Apr 21
New
Apr 29
First Quarter
May 5
Full
May 12
Last Quarter

Hourly Weather History & Observations

Time (PDT) Temp. Windchill Dew Point Humidity Pressure Visibility Wind Dir Wind Speed Gust Speed Precip Events Conditions
12:53 AM 43.0 °F - 41.0 °F 93% 30.10 in 10.0 mi Calm Calm - N/A   Mostly Cloudy
1:53 AM 43.0 °F - 41.0 °F 93% 30.10 in 10.0 mi Calm Calm - N/A   Overcast
2:53 AM 43.0 °F - 41.0 °F 93% 30.10 in 10.0 mi Calm Calm - N/A   Overcast
3:53 AM 42.1 °F - 41.0 °F 96% 30.10 in 8.0 mi Calm Calm - 0.01 in Rain Light Rain
4:53 AM 43.0 °F 41.3 °F 42.1 °F 97% 30.10 in 10.0 mi NNE 3.5 mph - 0.00 in   Overcast
5:34 AM 41.0 °F - 39.2 °F 93% 30.07 in 1.5 mi Calm Calm - N/A   Partly Cloudy
5:38 AM 39.2 °F - 39.2 °F 100% 30.06 in 0.5 mi Calm Calm - N/A Fog Fog
5:42 AM 41.0 °F - 39.2 °F 93% 30.06 in 0.5 mi Calm Calm - N/A Fog Fog
5:53 AM 39.9 °F - 39.9 °F 100% 30.09 in 0.5 mi Calm Calm - N/A Fog Fog
5:57 AM 41.0 °F - 39.2 °F 93% 30.07 in 1.0 mi Calm Calm - N/A   Scattered Clouds
6:03 AM 39.2 °F - 39.2 °F 100% 30.08 in 3.0 mi Calm Calm - N/A   Scattered Clouds
6:20 AM 39.2 °F - 39.2 °F 100% 30.08 in 1.2 mi Calm Calm - N/A   Partly Cloudy
6:22 AM 39.2 °F - 39.2 °F 100% 30.08 in 0.5 mi Calm Calm - N/A Fog Fog
6:36 AM 39.2 °F - 39.2 °F 100% 30.08 in 1.0 mi Calm Calm - N/A   Mist
6:40 AM 39.2 °F - 39.2 °F 100% 30.08 in 0.5 mi Calm Calm - N/A Fog Fog
6:48 AM 39.2 °F - 39.2 °F 100% 30.08 in 1.0 mi Calm Calm - N/A   Mist
6:50 AM 39.2 °F - 39.2 °F 100% 30.08 in 3.0 mi Calm Calm - N/A   Partly Cloudy
6:53 AM 39.9 °F - 39.9 °F 100% 30.11 in 6.0 mi Calm Calm - N/A   Partly Cloudy
7:53 AM 44.1 °F 42.5 °F 42.1 °F 93% 30.09 in 10.0 mi NNE 3.5 mph - N/A   Clear
8:53 AM 46.9 °F - 43.0 °F 86% 30.08 in 10.0 mi NNE 3.5 mph - N/A   Clear
9:53 AM 51.1 °F - 44.1 °F 77% 30.07 in 10.0 mi NNE 5.8 mph - N/A   Clear
10:53 AM 52.0 °F - 41.0 °F 66% 30.09 in 10.0 mi Variable 3.5 mph - N/A   Mostly Cloudy
11:53 AM 52.0 °F - 43.0 °F 71% 30.07 in 10.0 mi Calm Calm - N/A   Overcast
12:53 PM 55.9 °F - 39.0 °F 53% 30.04 in 10.0 mi SE 9.2 mph - N/A   Overcast
1:53 PM 57.0 °F - 37.9 °F 49% 30.03 in 10.0 mi SE 9.2 mph - N/A   Overcast
2:53 PM 57.0 °F - 37.9 °F 49% 30.00 in 10.0 mi SSE 9.2 mph - N/A   Overcast
3:53 PM 54.0 °F - 43.0 °F 66% 30.01 in 10.0 mi South 4.6 mph - 0.01 in Rain Light Rain
4:53 PM 51.1 °F - 46.0 °F 83% 29.99 in 6.0 mi Calm Calm - 0.07 in Rain Light Rain
5:53 PM 48.9 °F - 46.0 °F 90% 29.98 in 3.0 mi NNE 3.5 mph - 0.11 in Rain Light Rain
6:39 PM 48.2 °F - 46.4 °F 93% 29.95 in 4.0 mi WNW 3.5 mph - 0.06 in Rain Light Rain
6:53 PM 48.9 °F - 46.9 °F 93% 29.97 in 3.0 mi NW 3.5 mph - 0.09 in Rain Rain
7:37 PM 48.2 °F - 46.4 °F 93% 29.95 in 2.0 mi Calm Calm - 0.11 in Rain Rain
7:53 PM 48.0 °F - 46.0 °F 93% 29.98 in 2.5 mi WNW 4.6 mph - 0.16 in Rain Rain
8:01 PM 48.2 °F - 46.4 °F 93% 29.95 in 3.0 mi NW 4.6 mph - 0.03 in Rain Rain
8:23 PM 48.2 °F - 46.4 °F 93% 29.95 in 3.0 mi NNW 5.8 mph - 0.10 in Rain Rain
8:35 PM 48.2 °F - 46.4 °F 93% 29.95 in 2.5 mi North 5.8 mph - 0.15 in Rain Rain
8:44 PM 48.2 °F - 46.4 °F 93% 29.96 in 3.0 mi NW 5.8 mph - 0.17 in Rain Rain
8:53 PM 48.0 °F - 46.9 °F 96% 29.99 in 3.0 mi Variable 3.5 mph - 0.20 in Rain Rain
9:08 PM 48.2 °F - 46.4 °F 93% 29.96 in 3.0 mi Calm Calm - 0.04 in Rain Rain
9:18 PM 48.2 °F - 46.4 °F 93% 29.96 in 4.0 mi Calm Calm - 0.06 in Rain Light Rain
9:53 PM 48.9 °F - 46.9 °F 93% 29.98 in 4.0 mi SSE 8.1 mph - 0.10 in Rain Light Rain
10:20 PM 51.8 °F - 50.0 °F 94% 29.96 in 7.0 mi South 9.2 mph 16.1 mph 0.02 in Rain Light Rain
10:53 PM 52.0 °F - 50.0 °F 93% 29.98 in 5.0 mi SSE 9.2 mph 17.3 mph 0.09 in Rain Rain
11:33 PM 51.8 °F - 50.0 °F 94% 29.96 in 7.0 mi South 8.1 mph - 0.06 in Rain Light Rain
11:50 PM 51.8 °F - 50.0 °F 94% 29.97 in 3.0 mi South 5.8 mph - 0.10 in Rain Rain
11:53 PM 51.1 °F - 50.0 °F 96% 29.99 in 4.0 mi South 6.9 mph - 0.11 in Rain Rain